GSAT0208 (GALILEO 11)

Last updated on Oct. 24, 2020, 5:54 a.m. UTC

1 41175U 15079B   20297.24475626  .00000020  00000-0  00000-0 0  9998
2 41175  55.0095 157.9626 0002586 346.4197  13.6602  1.70473033 30194
UTC
Height (km)
Latitude
Longitude
Inclination
Orbital Period
UTC large
Height (km)
Speed (km/s)
/
Latitude / Longitude
Inclination (degrees)
Orbital Period (minutes)
Azimuth
Elevation
Range (km)
Doppler Factor
iOS Compass Heading
iOS Angle

Next 30 passes for location: Hong Kong

Rise time Rise Azimuth (degrees) Set time Set Azimuth (degrees) Duration Max altitude (degrees)

No matching passes for this satellites